Probability
0 0 0 0 0 0 0 0 0 0 0 0 0 0 0 0 0 0 0 0 0 0 0 0 0 0 0 0 0 0 0 0 0 0 0 0 0 0 0 0 0 0 0 0
0 0 0 0 0 0 0 0 0 0 0 0 0 0 0 0 0 0 0 0 0 0 0 0 0 0 0 0 0 0 0 0 0 0 0 0 0 0 0 0 0 0 0 0
0 0 0 0 0 0 0 0 0 0 0 0 0 0 0 0 0 0 0 0 0 0 0 0 0 0 0 0 0 0 0 0 0 0 0 0 0 0 0 0 0 0 0 0
0 0 0 0 0 0 0 0 0 0 0 0 0 0 0 0 0 0 0 0 0 0 0 0 0 0 0 0 0 0 0 0 0 0 0 0 0 0 0 0 0 0 0 0
0 0 0 0 0 0 0 0 0 0 0 0 0 0 0 0 0 0 0 0 0 0 0 0 0 0 0 0 0 0 0 0 0 0 0 0 0 0 0 0 0 0 0 0
0 0 0 0 0 0 0 0 0 0 0 0 0 0 0 0 0 0 0 0 0 0 0 0 0 0 0 0 0 0 0 0 0 0 0 0 0 0 0 0 0 0 0 0
0 0 0 0 0 0 0 0 0 0 0 0 0 0 0 0 0 0 0 0 0 0 0 0 0 0 0 0 0 0 0 0 0 0 0 0 0 0 0 0 0 0 0 0
0 0 0 0 0 0 0 0 0 0 0 0 0 0 0 0 0 0 0 0 0 0 0 0 0 0 0 0 0 0 0 0 0 0 0 0 0 0 0 0 0 0 0 0
0 0 0 0 0 0 0 0 0 0 0 0 0 0 0 0 0 0 0 0 0 0 0 0 0 0 0 0 0 0 0 0 0 0 0 0 0 0 0 0 0 0 0 0
0 0 0 0 0 0 0 0 0 0 0 0 0 0 0 0 0 0 0 0 0 0 0 0 0 0 0 0 0 0 0 0 0 0 0 0 0 0 0 0 0 0 0 0
0 0 0 0 0 0 0 0 0 0 0 0 0 0 0 0 0 0 0 0 0 0 0 0 0 0 0 0 0 0 0 0 0 0 0 0 0 0 0 0 0 0 0 0
0 0 0 0 0 0 0 0 0 0 0 0 0 0 0 0 0 0 0 0 0 0 0 0 0 0 0 0 0 0 0 0 0 0 0 0 0 0 0 0 0 0 0 0
0 0 0 0 0 0 0 0 0 0 0 0 0 0 0 0 0 0 0 0 0 0 0 0 0 0 0 0 0 0 0 0 0 0 0 0 0 0 0 0 0 0 0 0
0 0 0 0 0 0 0 0 0 0 0 0 0 0 0 0 0 0 0 0 0 0 0 0 0 0 0 0 0 0 0 0 0 0 0 0 0 0 0 0 0 0 0 0
0 0 0 0 0 0 0 0 0 0 0 0 0 0 0 0 0 0 0 0 0 0 0 0 0 0 0 0 0 0 0 0 0 0 0 0 0 0 0 0 0 0 0 0
0 0 0 0 0 0 0 0 0 0 0 0 0 0 0 0 0 0 0 0 0 0 0 0 0 0 0 0 0 0 0 0 0 0 0 0 0 0 0 0 0 0 0 0
0 0 0 0 0 0 0 0 0 0 0 0 0 0 0 0 0 0 0 0 0 0 0 0 0 0 0 0 0 0 0 0 0 0 0 0 0 0 0 0 0 0 0 0
0 0 0 0 0 0 0 0 0 0 0 0 0 0 0 0 0 0 0 0 0 0 0 0 0 0 0 0 0 0 0 0 0 0 0 0 0 0 0 0 0 0 0 0
0 0 0 0 0 0 0 0 0 0 0 0 0 0 0 0 0 0 0 0 0 0 0 0 0 0 0 0 0 0 0 0 0 0 0 0 0 0 0 0 0 0 0 0
0 0 0 0 0 0 0 0 0 0 0 0 0 0 0 0 0 0 0 0 0 0 0 0 0 0 0 0 0 0 0 0 0 0 0 0 0 0 0 0 0 0 0 0
0 0 0 0 0 0 0 0 0 0 0 0 0 0 0 0 0 0 0 0 0 0 0 0 0 0 0 0 0 0 0 0 0 0 0 0 0 0 0 0 0 0 0 0
0 0 0 0 0 0 0 0 0 0 0 0 0 0 0 0 0 0 0 0 0 0 0 0 0 0 0 0 0 0 0 0 0 0 0 0 0 0 0 0 0 0 0 0
0 0 0 0 0 0 0 0 0 0 0 0 0 0 0 0 0 0 0 0 0 0 0 0 0 0 0 0 0 0 0 0 0 0 0 0 0 0 0 0 0 0 0 0
0 0 0 0 0 0 0 0 0 0 0 0 0 0 0 0 0 0 0 0 0 0 0 0 0 0 0 0 0 0 0 0 0 0 0 0 0 0 0 0 0 0 0 0
0 0 0 0 0 0 0 0 0 0 0 0 0 0 0 0 0 0 0 0 0 0 0 0 0 0 0 0 0 0 0 0 0 0 0 0 0 0 0 0 0 0 0 0
0 0 0 0 0 0 0 0 0 0 0 0 0 0 0 0 0 0 0 0 0 0 0 0 0 0 0 0 0 0 0 0 0 0 0 0 0 0 0 0 0 0 0 0
Height
5882 5882 5879 5877 5876 5874 5872 5870 5868 5866 5863 5861 5858 5856 5853 5850 5847 5845 5841 5838 5834 5830 5826 5821 5815 5809 5803 5796 5788 5780 5772 5762 5752 5742 5731 5720 5708 5695 5681 5665 5648 5630 5610 5589
5881 5879 5878 5876 5874 5873 5871 5869 5867 5865 5862 5859 5857 5854 5851 5848 5845 5842 5839 5835 5831 5827 5822 5817 5811 5805 5798 5790 5782 5774 5764 5754 5743 5733 5721 5709 5696 5683 5668 5652 5634 5615 5594 5572
5878 5878 5875 5874 5873 5871 5870 5868 5865 5863 5861 5858 5856 5853 5850 5847 5843 5840 5836 5832 5828 5823 5818 5813 5806 5799 5792 5784 5775 5766 5756 5745 5734 5722 5710 5698 5685 5671 5655 5638 5620 5600 5578 5557
5876 5875 5874 5872 5871 5870 5868 5866 5864 5861 5859 5857 5855 5852 5849 5845 5841 5838 5834 5829 5824 5819 5814 5808 5801 5794 5786 5778 5769 5759 5748 5737 5725 5713 5700 5687 5673 5659 5643 5626 5607 5586 5565 5543
5873 5872 5871 5870 5870 5868 5866 5864 5862 5860 5857 5855 5852 5850 5847 5843 5839 5836 5831 5826 5821 5815 5809 5803 5796 5788 5780 5771 5761 5751 5740 5728 5716 5703 5690 5676 5662 5647 5631 5614 5595 5574 5553 5532
5870 5869 5869 5868 5867 5866 5864 5863 5861 5858 5855 5854 5850 5847 5844 5840 5836 5832 5828 5823 5817 5812 5805 5798 5791 5783 5774 5764 5754 5743 5732 5720 5707 5693 5680 5666 5652 5636 5620 5602 5583 5563 5543 5522
5867 5867 5866 5865 5864 5863 5862 5861 5859 5856 5854 5851 5847 5844 5842 5837 5832 5828 5824 5819 5813 5807 5800 5793 5785 5777 5768 5758 5747 5736 5724 5712 5699 5685 5671 5656 5642 5626 5609 5592 5573 5554 5534 5514
5863 5864 5863 5862 5861 5860 5859 5858 5856 5854 5850 5847 5844 5841 5839 5834 5829 5824 5819 5814 5808 5802 5795 5788 5780 5771 5762 5751 5741 5729 5717 5704 5691 5677 5662 5647 5632 5617 5600 5582 5564 5544 5525 5506
5859 5859 5859 5858 5857 5857 5855 5853 5852 5850 5846 5844 5841 5838 5835 5830 5826 5821 5815 5809 5803 5797 5790 5782 5774 5765 5755 5745 5734 5723 5710 5697 5683 5669 5655 5639 5624 5608 5591 5574 5555 5536 5518 5499
5854 5854 5854 5853 5853 5852 5851 5849 5848 5845 5842 5839 5837 5833 5829 5824 5820 5815 5810 5805 5799 5792 5785 5777 5768 5759 5749 5739 5728 5716 5704 5690 5677 5662 5648 5632 5616 5600 5584 5566 5548 5530 5511 5493
5849 5849 5849 5849 5848 5847 5846 5845 5842 5840 5837 5833 5830 5830 5824 5819 5814 5809 5804 5798 5792 5786 5778 5770 5762 5753 5743 5733 5722 5710 5697 5684 5670 5656 5641 5625 5610 5594 5577 5560 5542 5524 5506 5488
5844 5843 5843 5843 5842 5841 5840 5839 5837 5835 5832 5827 5823 5825 5818 5813 5808 5803 5798 5792 5786 5779 5772 5764 5756 5747 5737 5727 5716 5704 5691 5678 5664 5650 5635 5619 5603 5587 5571 5554 5537 5519 5501 5483
5838 5837 5837 5836 5837 5836 5834 5833 5830 5827 5825 5821 5817 5819 5812 5807 5802 5797 5792 5786 5780 5773 5766 5758 5750 5741 5731 5721 5710 5698 5686 5673 5659 5644 5629 5614 5598 5582 5566 5549 5532 5515 5497 5480
5831 5831 5831 5830 5828 5828 5827 5826 5824 5820 5817 5815 5812 5811 5807 5799 5794 5789 5784 5779 5773 5767 5759 5751 5743 5735 5725 5715 5704 5693 5680 5667 5654 5639 5624 5609 5593 5577 5561 5545 5528 5511 5494 5477
5824 5825 5824 5822 5820 5818 5819 5819 5817 5813 5811 5807 5805 5802 5800 5793 5788 5783 5777 5771 5765 5759 5752 5745 5737 5728 5719 5709 5698 5687 5675 5662 5649 5635 5620 5604 5589 5573 5557 5541 5524 5507 5491 5475
5816 5816 5816 5815 5813 5809 5809 5811 5809 5805 5803 5799 5796 5794 5792 5785 5781 5776 5770 5764 5759 5752 5746 5738 5730 5721 5712 5703 5693 5682 5670 5657 5644 5630 5615 5600 5585 5569 5553 5537 5521 5505 5489 5473
5809 5807 5806 5806 5804 5801 5802 5805 5801 5797 5795 5791 5787 5787 5782 5777 5773 5768 5762 5757 5751 5745 5738 5731 5723 5714 5706 5696 5687 5676 5664 5652 5639 5625 5611 5596 5581 5566 5550 5534 5519 5503 5488 5472
5801 5799 5796 5795 5794 5791 5798 5794 5791 5787 5786 5782 5779 5776 5771 5767 5764 5760 5753 5748 5743 5737 5730 5723 5715 5707 5698 5689 5680 5670 5658 5646 5634 5621 5607 5592 5577 5562 5547 5531 5516 5501 5486 5471
5791 5789 5787 5784 5781 5780 5786 5785 5780 5776 5776 5773 5769 5766 5761 5757 5754 5751 5745 5739 5734 5729 5722 5715 5708 5700 5691 5682 5673 5663 5652 5641 5629 5616 5602 5589 5574 5559 5544 5529 5514 5499 5484 5470
5781 5779 5777 5774 5770 5770 5776 5773 5768 5766 5765 5763 5758 5754 5751 5747 5743 5742 5736 5731 5725 5719 5713 5706 5699 5691 5683 5674 5666 5656 5646 5635 5624 5611 5598 5585 5571 5556 5542 5527 5512 5497 5483 5468
5770 5768 5767 5764 5759 5759 5765 5761 5757 5756 5755 5750 5746 5743 5739 5736 5732 5728 5724 5719 5714 5708 5702 5696 5689 5682 5674 5666 5658 5649 5640 5629 5618 5607 5594 5581 5568 5553 5539 5525 5510 5496 5482 5468
5757 5756 5755 5753 5749 5752 5754 5749 5747 5744 5741 5738 5734 5730 5727 5724 5720 5716 5712 5707 5702 5697 5692 5685 5679 5673 5665 5658 5650 5642 5633 5624 5613 5602 5590 5577 5564 5551 5537 5523 5509 5495 5481 5467
5743 5745 5742 5740 5741 5743 5739 5738 5735 5732 5729 5726 5722 5719 5715 5711 5708 5704 5700 5696 5691 5686 5680 5674 5668 5662 5656 5649 5642 5634 5626 5617 5607 5596 5585 5573 5561 5548 5535 5521 5507 5493 5480 5467
5729 5729 5726 5725 5728 5729 5726 5724 5722 5718 5714 5712 5710 5706 5702 5697 5694 5691 5687 5683 5678 5674 5668 5663 5657 5652 5646 5640 5633 5626 5618 5609 5600 5591 5580 5569 5557 5545 5532 5519 5506 5492 5479 5466
5715 5713 5710 5709 5713 5711 5711 5709 5706 5702 5699 5698 5695 5692 5687 5683 5680 5677 5673 5670 5665 5660 5656 5651 5646 5641 5635 5630 5623 5617 5609 5601 5593 5584 5574 5564 5553 5541 5529 5517 5504 5491 5479 5466
5702 5699 5695 5693 5697 5690 5690 5692 5688 5684 5682 5681 5678 5676 5673 5668 5664 5662 5658 5655 5651 5646 5642 5638 5633 5628 5624 5619 5613 5606 5600 5593 5585 5577 5568 5558 5548 5537 5526 5514 5502 5490 5478 5465
Wind_Speed
11 10 9 8 9 9 10 10 11 11 11 12 13 14 14 16 18 20 22 24 26 28 30 32 35 38 40 43 46 48 50 52 54 56 59 62 64 68 71 75 80 85 89 91
10 9 8 8 8 8 9 9 9 9 11 12 13 14 15 16 18 20 22 24 27 29 31 34 37 39 42 44 47 49 52 54 55 57 60 62 65 68 72 76 81 85 89 89
11 9 8 8 7 7 7 8 8 9 9 11 13 13 15 16 18 20 23 25 28 31 33 36 38 41 44 47 49 52 54 56 57 59 61 63 66 69 73 77 82 86 87 86
11 10 9 8 7 7 7 6 7 8 9 9 11 12 14 16 19 21 24 26 29 32 35 38 40 43 46 49 52 54 57 59 60 61 63 65 67 70 74 78 82 85 85 84
12 11 10 9 8 8 7 6 6 7 8 9 11 12 14 16 19 21 24 27 30 33 36 39 42 45 48 51 54 57 59 62 63 64 65 66 69 72 75 78 82 84 83 81
14 13 12 11 10 9 8 7 7 8 8 9 11 13 15 17 19 22 24 27 30 33 37 40 43 47 50 53 56 59 62 64 66 66 67 68 70 73 75 79 81 82 81 79
16 15 14 14 13 12 11 10 9 10 10 11 12 14 16 18 21 23 26 29 31 35 38 41 44 48 51 54 58 61 64 66 68 69 69 70 71 73 76 78 81 81 79 77
18 17 17 16 15 14 13 13 13 13 14 14 14 15 17 19 22 25 27 30 33 36 39 43 46 49 52 55 59 62 65 68 70 71 72 72 73 74 76 78 80 80 78 76
21 19 19 19 18 17 16 16 16 16 16 17 17 18 19 21 23 26 29 32 34 37 40 44 47 50 54 57 60 63 66 69 71 73 74 73 73 75 76 78 79 79 77 75
22 22 21 21 21 20 20 19 18 19 20 21 21 22 24 25 27 29 31 33 36 39 42 45 48 51 54 57 61 64 67 70 72 74 75 75 74 75 76 78 78 78 76 74
24 24 23 23 23 23 23 22 22 23 24 25 26 25 27 28 30 32 34 36 39 41 44 47 49 52 55 58 61 64 67 70 72 75 76 76 75 75 76 77 77 77 75 73
25 26 25 25 26 26 26 25 25 26 27 28 30 28 29 30 32 33 36 38 41 43 46 48 50 53 56 59 62 65 67 70 73 75 77 77 76 75 75 76 77 76 74 72
27 27 27 28 28 28 28 27 28 30 31 31 32 30 32 34 35 36 38 40 42 44 47 50 51 53 56 59 62 65 67 70 73 75 77 78 77 75 75 76 76 75 73 71
29 29 29 30 31 31 31 30 32 33 34 34 33 32 32 36 38 40 41 43 44 46 48 51 52 54 56 59 61 64 67 70 72 75 76 78 77 76 75 75 76 74 72 70
32 31 31 32 34 36 35 33 34 35 36 38 36 36 34 37 39 41 43 45 46 48 50 52 54 55 56 59 61 64 66 69 72 74 76 77 78 76 75 75 75 74 71 69
34 34 34 34 35 39 39 35 36 38 37 39 40 38 37 41 41 42 44 46 47 49 51 52 54 55 56 58 60 63 66 68 71 73 75 77 77 76 75 74 74 73 71 68
36 37 38 37 38 41 40 36 38 40 40 41 42 41 42 43 44 44 46 48 49 50 51 53 55 56 56 58 59 62 65 67 70 72 74 76 77 76 74 73 73 72 71 68
38 38 40 41 42 44 39 38 39 41 41 42 43 43 45 46 46 46 48 50 50 51 52 53 55 55 56 57 58 61 63 66 69 71 73 75 76 76 74 73 72 72 70 68
40 40 42 44 45 46 41 39 40 43 43 42 44 45 47 48 48 46 48 50 51 52 53 53 54 55 56 56 57 59 62 65 68 70 72 74 75 75 74 72 71 71 69 67
42 42 44 45 47 48 43 40 41 43 44 43 45 46 47 49 50 49 50 51 52 53 53 54 54 54 55 56 57 58 61 64 67 69 71 73 74 74 74 72 70 70 69 67
46 45 46 47 50 51 45 43 43 43 42 45 46 47 49 50 51 52 53 53 54 54 54 55 55 55 55 56 57 58 60 63 66 68 70 71 72 73 73 71 69 68 67 66
51 51 50 49 52 51 45 45 43 43 44 46 48 50 51 52 53 53 54 55 55 55 55 56 56 56 56 56 57 58 60 63 65 67 69 70 71 71 72 70 68 67 66 65
57 55 54 55 55 51 49 47 46 46 48 49 51 52 54 55 55 55 55 56 56 56 57 57 57 57 57 57 58 59 60 63 65 67 67 68 69 69 70 69 67 66 65 64
62 60 61 61 57 54 53 51 50 51 53 53 54 55 57 58 58 58 58 58 58 58 58 58 58 58 58 58 59 60 61 63 65 65 66 66 67 67 68 67 66 64 63 62
65 66 66 65 61 60 57 56 56 56 57 57 57 58 59 60 60 60 60 59 59 59 59 59 60 60 59 59 59 60 61 63 64 64 64 64 64 65 65 65 64 63 62 62
63 64 66 66 63 65 63 60 60 61 60 60 60 61 60 61 62 61 61 61 61 62 61 61 61 61 61 60 60 61 62 63 64 63 62 62 62 63 63 63 62 61 61 61
Wind_Direction
318 319 325 332 337 341 344 347 350 354 357 359 359 359 1 358 357 356 353 351 349 348 347 345 343 341 340 338 336 335 333 330 328 327 326 325 325 326 326 326 326 326 327 327
311 312 318 325 330 334 338 343 352 358 358 1 2 2 4 4 2 360 357 355 353 352 350 349 347 345 344 343 341 339 337 335 332 331 329 328 328 328 328 328 328 329 330 331
305 303 306 311 316 321 329 339 350 359 3 4 3 3 3 5 4 1 359 356 355 353 352 351 349 347 346 345 344 344 342 339 337 334 333 332 331 331 331 331 331 332 333 334
297 292 293 295 299 306 316 328 343 353 358 358 0 3 2 4 3 0 358 356 355 353 352 350 349 348 347 347 346 346 345 343 340 338 336 335 334 334 333 334 334 335 336 336
289 283 281 282 285 290 298 308 325 338 343 346 351 357 0 1 1 358 357 355 354 352 351 350 349 348 348 348 348 347 347 346 343 341 339 338 337 336 336 336 337 338 339 339
283 276 273 273 273 277 282 290 305 318 328 329 342 349 351 355 355 355 355 354 353 352 351 350 349 349 349 348 348 348 348 347 346 344 342 340 339 338 338 338 339 340 341 341
279 272 268 266 267 268 273 283 291 297 308 322 333 338 342 345 347 349 350 351 351 351 350 349 349 349 349 348 348 349 348 348 347 346 344 342 341 340 340 340 341 342 343 343
278 270 266 263 262 265 268 275 282 294 306 315 321 325 332 336 340 342 344 346 348 348 348 348 348 348 348 348 348 348 349 349 348 347 346 344 343 342 341 342 343 344 345 345
279 272 265 262 261 262 266 271 280 289 297 302 309 314 321 328 333 336 339 342 344 345 346 347 347 347 347 347 348 348 348 349 349 348 347 346 344 343 343 344 345 346 347 347
278 272 266 263 261 262 265 270 278 285 291 296 303 311 318 324 328 332 335 338 339 341 343 345 345 346 346 346 347 347 348 349 349 349 348 347 345 345 345 345 346 348 348 349
276 273 267 263 262 261 264 269 276 281 288 295 300 308 313 318 323 327 330 333 335 337 340 342 343 344 345 345 346 347 347 348 349 349 349 348 347 346 346 346 348 349 350 350
276 273 269 263 261 261 264 269 275 280 286 291 297 306 309 313 317 321 324 327 330 333 335 338 340 342 343 344 345 346 347 347 348 349 349 349 347 347 347 347 349 350 351 352
274 272 270 265 261 262 264 268 274 278 284 289 295 304 306 309 312 316 319 322 325 328 331 334 337 339 341 342 344 345 346 347 348 348 349 349 348 347 347 348 350 351 353 353
274 272 270 268 267 264 264 267 272 278 284 288 293 298 302 304 308 312 315 319 321 324 328 331 334 336 339 340 342 343 345 346 347 348 349 349 349 348 348 349 351 352 353 354
275 273 271 269 267 266 266 268 272 277 283 287 292 294 299 298 303 308 311 314 318 321 324 328 331 333 336 338 340 342 343 345 346 347 348 349 349 348 348 350 351 353 354 355
275 275 272 269 267 268 269 271 275 278 281 285 288 292 294 295 300 303 306 310 313 317 321 324 328 330 333 336 338 340 342 343 345 346 348 348 349 348 348 350 351 353 355 356
275 276 275 272 269 269 271 274 274 277 281 284 287 290 290 293 297 300 302 306 310 314 318 321 325 327 330 333 336 338 340 342 344 346 347 348 348 349 348 350 351 353 355 356
275 275 276 276 274 272 276 275 275 276 279 282 285 287 289 292 295 298 301 304 308 311 315 318 321 324 327 330 333 336 338 341 343 345 346 347 348 348 348 349 351 353 355 357
274 276 276 277 277 277 277 278 278 278 280 282 284 285 287 290 293 295 298 302 305 308 311 315 318 321 324 327 330 333 336 339 341 343 344 346 347 347 348 349 351 353 355 357
272 274 275 277 278 279 282 282 281 281 282 283 283 284 286 288 291 293 296 299 303 306 309 312 315 318 321 324 328 330 334 337 339 341 343 344 346 347 347 348 350 352 355 357
271 272 273 276 277 279 284 285 285 285 286 283 284 285 286 288 291 294 296 299 302 305 307 310 313 316 319 322 325 328 331 334 337 339 341 343 344 345 346 347 349 352 354 357
271 271 273 274 275 280 283 283 284 284 283 283 283 285 286 288 290 292 295 297 300 303 305 307 310 313 316 319 321 324 328 331 334 337 339 341 343 344 345 346 348 351 354 356
270 272 273 273 275 279 280 281 282 281 280 280 282 284 285 287 289 291 293 295 298 300 302 304 307 309 312 315 318 321 324 327 331 334 336 338 341 343 344 345 347 350 353 356
273 273 273 274 276 277 277 278 279 278 278 279 280 282 283 285 287 289 290 292 294 296 299 301 303 306 309 311 314 317 320 323 327 330 333 336 338 341 343 344 345 348 352 355
273 274 275 276 277 276 276 277 277 277 277 279 280 281 282 284 286 287 289 291 293 295 297 299 301 303 306 308 310 313 315 318 322 326 330 333 336 339 341 342 344 347 350 353
275 276 277 277 278 277 276 276 277 277 277 278 279 279 280 282 284 286 288 289 291 292 294 296 298 300 302 304 306 308 311 314 318 322 326 329 333 336 339 340 342 345 348 352